Location: *
(51.2167°N, 10.0667°E)
Time: 06:13:31
(UTC+00:00)

NOAA 12 - Pass Details

Date: 12 December 2019
Orbit: 795 x 816 km, 98.5° (Epoch: 19 January)

Event Time Altitude Azimuth Distance (km) Brightness Sun altitude
Rises 16:24:21 0° 149° (SSE) 3,322 7.2 -10.6°
Reaches altitude 10° 16:26:43 10° 145° (SE) 2,392 6.4 -10.9°
Maximum altitude 16:31:52 55° 68° (ENE) 965 4.2 -11.6°
Drops below altitude 10° 16:37:01 10° 352° (N) 2,395 6.4 -12.4°
Sets 16:39:23 0° 348° (NNW) 3,327 7.2 -12.7°
